Time,TemperatureF,DewpointF,PressureIn,WindDirection,WindDirectionDegrees,WindSpeedMPH,WindSpeedGustMPH,Humidity,HourlyPrecipIn,Conditions,Clouds,dailyrainin,SoftwareType,DateUTC
2013-07-08 00:01:00,80.0,-99.9,30.14,South,171,3.0,4.0,-999,-99.99,,,-99.99,,2013-07-08 05:01:00,
2013-07-08 00:12:00,80.0,-99.9,30.15,SSE,158,3.0,4.0,-999,-99.99,,,-99.99,,2013-07-08 05:12:00,
2013-07-08 00:34:00,80.0,-99.9,30.15,SSE,159,3.0,4.0,-999,-99.99,,,-99.99,,2013-07-08 05:34:00,
2013-07-08 00:43:00,80.0,-99.9,30.15,SSE,159,3.0,4.0,-999,-99.99,,,-99.99,,2013-07-08 05:43:00,
2013-07-08 00:53:00,80.0,-99.9,30.15,South,170,3.0,3.0,-999,-99.99,,,-99.99,,2013-07-08 05:53:00,
2013-07-08 01:01:00,80.0,-99.9,30.14,South,189,2.0,2.0,-999,-99.99,,,-99.99,,2013-07-08 06:01:00,
2013-07-08 01:12:00,80.0,-99.9,30.14,SSW,205,0.0,1.0,-999,-99.99,,,-99.99,,2013-07-08 06:12:00,
2013-07-08 01:22:00,80.0,-99.9,30.14,SSW,205,0.0,1.0,-999,-99.99,,,-99.99,,2013-07-08 06:22:00,
2013-07-08 01:34:00,80.0,-99.9,30.14,SSW,206,1.0,2.0,-999,-99.99,,,-99.99,,2013-07-08 06:34:00,
2013-07-08 01:53:00,80.0,-99.9,30.14,SW,231,2.0,4.0,-999,-99.99,,,-99.99,,2013-07-08 06:53:00,
2013-07-08 02:02:00,78.0,-99.9,30.14,WNW,295,11.0,13.0,-999,-99.99,,,-99.99,,2013-07-08 07:02:00,
2013-07-08 02:12:00,78.0,-99.9,30.14,WNW,292,9.0,12.0,-999,-99.99,,,-99.99,,2013-07-08 07:12:00,
2013-07-08 02:34:00,77.0,-99.9,30.13,WNW,301,9.0,11.0,-999,-99.99,,,-99.99,,2013-07-08 07:34:00,
2013-07-08 02:44:00,77.0,-99.9,30.13,NW,308,9.0,11.0,-999,-99.99,,,-99.99,,2013-07-08 07:44:00,
2013-07-08 02:53:00,77.0,-99.9,30.12,NW,310,11.0,12.0,-999,-99.99,,,-99.99,,2013-07-08 07:53:00,
2013-07-08 03:02:00,77.0,-99.9,30.12,NW,308,9.0,10.0,-999,-99.99,,,-99.99,,2013-07-08 08:02:00,
2013-07-08 03:12:00,77.0,-99.9,30.13,NW,307,7.0,9.0,-999,-99.99,,,-99.99,,2013-07-08 08:12:00,
2013-07-08 03:34:00,77.0,-99.9,30.12,WNW,287,6.0,8.0,-999,-99.99,,,-99.99,,2013-07-08 08:34:00,
2013-07-08 03:42:00,77.0,-99.9,30.12,WNW,287,6.0,8.0,-999,-99.99,,,-99.99,,2013-07-08 08:42:00,
2013-07-08 03:53:00,77.0,-99.9,30.12,West,270,2.0,5.0,-999,-99.99,,,-99.99,,2013-07-08 08:53:00,
2013-07-08 04:02:00,77.0,-99.9,30.12,West,279,3.0,4.0,-999,-99.99,,,-99.99,,2013-07-08 09:02:00,
2013-07-08 04:11:00,77.0,-99.9,30.12,West,279,3.0,3.0,-999,-99.99,,,-99.99,,2013-07-08 09:11:00,
2013-07-08 04:34:00,77.0,-99.9,30.12,North,5,2.0,2.0,-999,-99.99,,,-99.99,,2013-07-08 09:34:00,
2013-07-08 04:43:00,77.0,-99.9,30.12,North,1,1.0,3.0,-999,-99.99,,,-99.99,,2013-07-08 09:43:00,
2013-07-08 04:53:00,77.0,-99.9,30.12,NE,53,4.0,6.0,-999,-99.99,,,-99.99,,2013-07-08 09:53:00,
2013-07-08 05:02:00,78.0,-99.9,30.12,NE,48,6.0,6.0,-999,-99.99,,,-99.99,,2013-07-08 10:02:00,
2013-07-08 05:11:00,78.0,-99.9,30.12,ENE,63,5.0,7.0,-999,-99.99,,,-99.99,,2013-07-08 10:11:00,
2013-07-08 05:22:00,78.0,-99.9,30.12,ENE,63,5.0,7.0,-999,-99.99,,,-99.99,,2013-07-08 10:22:00,
2013-07-08 05:34:00,78.0,-99.9,30.12,ENE,64,8.0,8.0,-999,-99.99,,,-99.99,,2013-07-08 10:34:00,
2013-07-08 05:53:00,78.0,-99.9,30.13,ENE,61,8.0,8.0,-999,-99.99,,,-99.99,,2013-07-08 10:53:00,
2013-07-08 06:02:00,78.0,-99.9,30.13,NE,51,6.0,7.0,-999,-99.99,,,-99.99,,2013-07-08 11:02:00,
2013-07-08 06:11:00,78.0,-99.9,30.13,NE,52,6.0,8.0,-999,-99.99,,,-99.99,,2013-07-08 11:11:00,
2013-07-08 06:34:00,78.0,-99.9,30.13,East,90,10.0,11.0,-999,-99.99,,,-99.99,,2013-07-08 11:34:00,
2013-07-08 06:43:00,78.0,-99.9,30.14,East,91,10.0,10.0,-999,-99.99,,,-99.99,,2013-07-08 11:43:00,
2013-07-08 06:53:00,78.0,-99.9,30.14,East,89,9.0,11.0,-999,-99.99,,,-99.99,,2013-07-08 11:53:00,
2013-07-08 07:02:00,78.0,-99.9,30.14,ENE,73,8.0,11.0,-999,-99.99,,,-99.99,,2013-07-08 12:02:00,
2013-07-08 07:12:00,79.0,-99.9,30.15,ENE,78,10.0,11.0,-999,-99.99,,,-99.99,,2013-07-08 12:12:00,
2013-07-08 07:34:00,79.0,-99.9,30.15,ENE,67,11.0,12.0,-999,-99.99,,,-99.99,,2013-07-08 12:34:00,
2013-07-08 07:43:00,78.0,-99.9,30.16,ENE,65,10.0,11.0,-999,-99.99,,,-99.99,,2013-07-08 12:43:00,
2013-07-08 07:53:00,78.0,-99.9,30.16,ENE,66,10.0,10.0,-999,-99.99,,,-99.99,,2013-07-08 12:53:00,
2013-07-08 08:02:00,78.0,-99.9,30.16,East,80,9.0,9.0,-999,-99.99,,,-99.99,,2013-07-08 13:02:00,
2013-07-08 08:11:00,79.0,-99.9,30.17,ENE,73,8.0,8.0,-999,-99.99,,,-99.99,,2013-07-08 13:11:00,
2013-07-08 08:22:00,-999.0,-99.9,30.17,ENE,74,6.0,7.0,-999,-99.99,,,-99.99,,2013-07-08 13:22:00,
2013-07-08 08:33:00,79.0,-99.9,30.18,ENE,77,7.0,11.0,-999,-99.99,,,-99.99,,2013-07-08 13:33:00,
2013-07-08 08:43:00,79.0,-99.9,30.18,ENE,75,9.0,10.0,-999,-99.99,,,-99.99,,2013-07-08 13:43:00,
2013-07-08 08:53:00,79.0,-99.9,30.19,ENE,76,8.0,9.0,-999,-99.99,,,-99.99,,2013-07-08 13:53:00,
2013-07-08 09:02:00,79.0,-99.9,30.19,East,82,8.0,10.0,-999,-99.99,,,-99.99,,2013-07-08 14:02:00,
2013-07-08 09:12:00,79.0,-99.9,30.19,ENE,78,8.0,9.0,-999,-99.99,,,-99.99,,2013-07-08 14:12:00,
2013-07-08 09:34:00,79.0,-99.9,30.19,NE,51,6.0,7.0,-999,-99.99,,,-99.99,,2013-07-08 14:34:00,
2013-07-08 09:43:00,79.0,-99.9,30.19,NE,49,6.0,8.0,-999,-99.99,,,-99.99,,2013-07-08 14:43:00,
2013-07-08 09:53:00,79.0,-99.9,30.19,NE,47,7.0,8.0,-999,-99.99,,,-99.99,,2013-07-08 14:53:00,
2013-07-08 10:02:00,79.0,-99.9,30.19,NE,46,7.0,8.0,-999,-99.99,,,-99.99,,2013-07-08 15:02:00,
2013-07-08 10:12:00,79.0,-99.9,30.20,NE,50,6.0,8.0,-999,-99.99,,,-99.99,,2013-07-08 15:12:00,
2013-07-08 10:33:00,79.0,-99.9,30.20,NE,52,6.0,8.0,-999,-99.99,,,-99.99,,2013-07-08 15:33:00,
2013-07-08 10:43:00,79.0,-99.9,30.20,ENE,57,6.0,8.0,-999,-99.99,,,-99.99,,2013-07-08 15:43:00,
2013-07-08 10:53:00,79.0,-99.9,30.20,ENE,64,6.0,8.0,-999,-99.99,,,-99.99,,2013-07-08 15:53:00,
2013-07-08 11:02:00,79.0,-99.9,30.21,ENE,69,6.0,8.0,-999,-99.99,,,-99.99,,2013-07-08 16:02:00,
2013-07-08 11:11:00,79.0,-99.9,30.20,ENE,70,7.0,8.0,-999,-99.99,,,-99.99,,2013-07-08 16:11:00,
2013-07-08 11:34:00,79.0,-99.9,30.20,ENE,73,7.0,8.0,-999,-99.99,,,-99.99,,2013-07-08 16:34:00,
2013-07-08 11:43:00,79.0,-99.9,30.20,ENE,77,7.0,8.0,-999,-99.99,,,-99.99,,2013-07-08 16:43:00,
2013-07-08 12:08:00,80.0,-99.9,30.20,ENE,62,6.0,7.0,-999,-99.99,,,-99.99,,2013-07-08 17:08:00,
2013-07-08 12:37:00,80.0,-99.9,30.21,East,84,5.0,6.0,-999,-99.99,,,-99.99,,2013-07-08 17:37:00,
2013-07-08 12:48:00,80.0,-99.9,30.20,SE,132,9.0,10.0,-999,-99.99,,,-99.99,,2013-07-08 17:48:00,
2013-07-08 12:56:00,80.0,-99.9,30.20,SE,129,7.0,9.0,-999,-99.99,,,-99.99,,2013-07-08 17:56:00,
2013-07-08 13:14:00,80.0,-99.9,30.20,SE,132,8.0,11.0,-999,-99.99,,,-99.99,,2013-07-08 18:14:00,
2013-07-08 13:46:00,80.0,-99.9,30.19,SE,128,14.0,19.0,-999,-99.99,,,-99.99,,2013-07-08 18:46:00,
2013-07-08 13:56:00,79.0,-99.9,30.19,SE,142,17.0,19.0,-999,-99.99,,,-99.99,,2013-07-08 18:56:00,
2013-07-08 14:15:00,79.0,-99.9,30.19,SE,142,13.0,15.0,-999,-99.99,,,-99.99,,2013-07-08 19:15:00,
2013-07-08 14:22:00,79.0,-99.9,30.19,SE,145,13.0,16.0,-999,-99.99,,,-99.99,,2013-07-08 19:22:00,
2013-07-08 14:36:00,79.0,-99.9,30.19,SE,145,13.0,16.0,-999,-99.99,,,-99.99,,2013-07-08 19:36:00,
2013-07-08 15:09:00,80.0,-99.9,30.18,SE,142,11.0,12.0,-999,-99.99,,,-99.99,,2013-07-08 20:09:00,
2013-07-08 15:18:00,80.0,-99.9,30.18,SE,140,10.0,11.0,-999,-99.99,,,-99.99,,2013-07-08 20:18:00,
2013-07-08 15:24:00,80.0,-99.9,30.18,SE,141,9.0,10.0,-999,-99.99,,,-99.99,,2013-07-08 20:24:00,
2013-07-08 15:50:00,81.0,-99.9,30.18,South,173,5.0,8.0,-999,-99.99,,,-99.99,,2013-07-08 20:50:00,
2013-07-08 16:12:00,80.0,-99.9,30.16,SW,218,2.0,3.0,-999,-99.99,,,-99.99,,2013-07-08 21:12:00,
2013-07-08 16:19:00,80.0,-99.9,30.17,SW,232,5.0,6.0,-999,-99.99,,,-99.99,,2013-07-08 21:19:00,
2013-07-08 16:48:00,80.0,-99.9,30.16,SW,224,4.0,5.0,-999,-99.99,,,-99.99,,2013-07-08 21:48:00,
2013-07-08 16:59:00,80.0,-99.9,30.16,SW,215,3.0,3.0,-999,-99.99,,,-99.99,,2013-07-08 21:59:00,
2013-07-08 18:12:00,80.0,-99.9,30.17,SE,131,1.0,2.0,-999,-99.99,,,-99.99,,2013-07-08 23:12:00,
2013-07-08 19:06:00,81.0,-99.9,30.16,NNE,23,0.0,2.0,-999,-99.99,,,-99.99,,2013-07-09 00:06:00,
2013-07-08 19:42:00,80.0,-99.9,30.15,South,187,2.0,3.0,-999,-99.99,,,-99.99,,2013-07-09 00:42:00,
2013-07-08 22:27:00,80.0,-99.9,30.19,NNE,26,1.0,2.0,-999,-99.99,,,-99.99,,2013-07-09 03:27:00,
2013-07-08 22:50:00,80.0,-99.9,30.19,NNE,15,2.0,3.0,-999,-99.99,,,-99.99,,2013-07-09 03:50:00,
2013-07-08 23:02:00,80.0,-99.9,30.19,NNE,28,1.0,3.0,-999,-99.99,,,-99.99,,2013-07-09 04:02:00,
2013-07-08 23:11:00,80.0,-99.9,30.20,NE,50,2.0,2.0,-999,-99.99,,,-99.99,,2013-07-09 04:11:00,
2013-07-08 23:34:00,80.0,-99.9,30.19,ESE,118,4.0,4.0,-999,-99.99,,,-99.99,,2013-07-09 04:34:00,
2013-07-08 23:43:00,80.0,-99.9,30.19,ESE,116,3.0,4.0,-999,-99.99,,,-99.99,,2013-07-09 04:43:00,
2013-07-08 23:53:00,80.0,-99.9,30.19,ESE,123,3.0,4.0,-999,-99.99,,,-99.99,,2013-07-09 04:53:00,